OBJECT J, 43839

Orbit data source: Space-Track

You're viewing an Uncataloged Satellite

Recently launched and/or uncataloged satellites may have evolving metadata. Metadata may include but not limited to: Owner, Maufacturer, Bus, Motor, and Mission.

OBJECT J, 43839 is a satellite in SSO that was launched on Fri, 07 Dec 2018 UTC via a CHANG ZHENG 2D launch vehicle from the Jiuquan Satellite Launch Center, China (JSC). Unknown objects in Earth's orbit typically refer to objects detected orbiting the Earth but have not yet been identified or cataloged. These objects could be anything from previously untracked satellites, spent rocket stages, debris from satellite collisions, or even natural meteoroids temporarily captured by Earth's gravity.

Not visible in the next 10 days
OBJECT J details
Identifier
43839, 2018-102J
Orbit
SSO
Last TLE update6 hours ago
Origin
Flag of TBDBTWK/LUHAN (TBD)
ManufacturerJiutian
MissionCommercial Communications
Bus & MotorCUBESAT 3U?, Unknown motor
Mass5 kg wet, 5 kg dry
Launch date (UTC)
2018-12-07 (6 years ago)
Launch vehicle
CHANG ZHENG 2D
Launch site
Jiuquan Satellite Launch Center, China (JSC)
Object typeUnknown
Shape & HBRBox, 0.3 m
Radar Cross Section0.035 m², Medium (>0.1 m² and < 1m²)

Expand to show TLE details & history

TLE from 6 hours ago
0 OBJECT J
1 43839U 18102J   24361.16174621  .00300174  00000-0  18265-2 0  9992
2 43839  97.4315  91.6735 0004870 212.6257 147.4709 15.76609695335178
Epoch: 2024-12-26T03:52Z
Definitive object data (Epoch: 2024-12-26T03:52:54.872Z)
Latitude0.00004°
Longitude-61.70025°
Altitude345.98 km
Speed7.7 km/s
True Right ascension06h 06m 41s
True Declination0° 00' 00"
Sunlit
Object was in full shadow at TLE epoch
Visualization TLE readout
Latitude53.82089°
Longitude-71.63327°
Altitude351.592 km
Speed7.702 km/s
Apparent Right ascension00h 50m 51s
Apparent Declination16° 09' 58"
Sunlit
Object is in full shadow
Visualization observer readout
Local Sidereal Time09:33:24
Azimuth310.157° NW
Elevation-17.526°
Doppler factor1
Orbital elements
Apogee altitude340.217 km
Perigee altitude333.676 km
Semi-major axis6,715.083 km
Eccentricity0.000487
Inclination97.4315°
RAAN91.6735°
Arg. of periapsis212.6257°
True anomaly147.50089°
Mean anomaly147.4709°
Eccentric anomaly147.4859°
Mean motion3.94426 °/min
BSTAR0.0018265
Orbital period91.27 mins
Loading maneuver chart data...
Loading historical data...
Loading historical data...
Loading historical data...
Loading historical data...
Loading historical data...
Loading historical data...
Loading historical data...

OBJECT J Visibility forecast

Observer location: undefined°, undefined

OBJECT J is not visible in the next 10 days
Span
Click to sort rows by Start time (UTC) header in descending order
Start Az.
Max El. time (UTC)
Max El. Az.
Max El.
End time (UTC)
End Az.
|